Probability
0 0 0 0 0 0 0 0 0 0 0 0 0 0 0 0 0 0 0 0 0 0 0 0 0 0 0 0 0 0 0 0 0 0 0 0 0 0 0 0 0 0 0 0 0 0 0 0 0
0 0 0 0 0 0 0 0 0 0 0 0 0 0 0 0 0 0 0 0 0 0 0 0 0 0 0 0 0 0 0 0 0 0 0 0 0 0 0 0 0 0 0 0 0 0 0 0 0
0 0 0 0 0 0 0 0 0 0 0 0 0 0 0 0 0 0 0 0 0 0 0 0 0 0 0 0 0 0 0 0 0 0 0 0 0 0 0 0 0 0 0 0 0 0 0 0 0
0 0 0 0 0 0 0 0 0 0 0 0 0 0 0 0 0 0 0 0 0 0 0 0 0 0 0 0 0 0 0 0 0 0 0 0 0 0 0 0 0 0 0 0 0 0 0 0 0
0 0 0 0 0 0 0 0 0 0 0 0 0 0 0 0 0 0 0 0 0 0 0 0 0 0 0 0 0 0 0 0 0 0 0 0 0 0 0 0 0 0 0 0 0 0 0 0 0
0 0 0 0 0 0 0 0 0 0 0 0 0 0 0 0 0 0 0 0 0 0 0 0 0 0 0 0 0 0 0 0 0 0 0 0 0 0 0 0 0 0 0 0 0 0 0 0 0
0 0 0 0 0 0 0 0 0 0 0 0 0 0 0 0 0 0 0 0 0 0 0 0 0 0 0 0 0 0 0 0 0 0 0 0 0 0 0 0 0 0 0 0 0 0 0 0 0
0 0 0 0 0 0 0 0 0 0 0 0 0 0 0 0 0 0 0 0 0 0 0 0 0 0 0 0 0 0 0 0 0 0 0 0 0 0 0 0 0 0 0 0 0 0 0 0 0
0 0 0 0 0 0 0 0 0 0 0 0 0 0 0 0 0 0 0 0 0 0 0 0 0 0 0 0 0 0 0 0 0 0 0 0 0 0 0 0 0 0 0 0 0 0 0 0 0
0 0 0 0 0 0 0 0 0 0 0 0 0 0 0 0 0 0 0 0 0 0 0 0 0 0 0 0 0 0 0 0 0 0 0 0 0 0 0 0 0 0 0 0 0 0 0 0 0
0 0 0 0 0 0 0 0 0 0 0 0 0 0 0 0 0 0 0 0 0 0 0 0 0 0 0 0 0 0 0 0 0 0 0 0 0 0 0 0 0 0 0 0 0 0 0 0 0
0 0 0 0 0 0 0 0 0 0 0 0 0 0 0 0 0 0 0 0 0 0 0 0 0 0 0 0 0 0 0 0 0 0 0 0 0 0 0 0 0 0 0 0 0 0 0 0 0
0 0 0 0 0 0 0 0 0 0 0 0 0 0 0 0 0 0 0 0 0 0 0 0 0 0 0 0 0 0 0 0 0 0 0 0 0 0 0 0 0 0 0 0 0 0 0 0 0
0 0 0 0 0 0 0 0 0 0 0 0 0 0 0 0 0 0 0 0 0 0 0 0 0 0 0 0 0 0 0 0 0 0 0 0 0 0 0 0 0 0 0 0 0 0 0 0 0
0 0 0 0 0 0 0 0 0 0 0 0 0 0 0 0 0 0 0 0 0 0 0 0 0 0 0 0 0 0 0 0 0 0 0 0 0 0 0 0 0 0 0 0 0 0 0 0 0
0 0 0 0 0 0 0 0 0 0 0 0 0 0 0 0 0 0 0 0 0 0 0 0 0 0 0 0 0 0 0 0 0 0 0 0 0 0 0 0 0 0 0 0 0 0 0 0 0
0 0 0 0 0 0 0 0 0 0 0 0 0 0 0 0 0 0 0 0 0 0 0 0 0 0 0 0 0 0 0 0 0 0 0 0 0 0 0 0 0 0 0 0 0 0 0 0 0
0 0 0 0 0 0 0 0 0 0 0 0 0 0 0 0 0 0 0 0 0 0 0 0 0 0 0 0 0 1 1 1 1 1 0 0 0 0 0 0 0 0 0 0 0 0 0 0 0
0 0 0 0 0 0 0 0 0 0 0 0 0 0 0 0 0 0 0 0 0 0 0 0 0 0 0 0 0 1 2 2 2 2 1 0 0 0 0 0 0 0 0 0 0 0 0 0 0
0 0 0 0 0 0 0 0 0 0 0 0 0 0 0 0 0 0 0 0 0 1 1 1 0 0 0 0 0 1 1 1 1 1 1 0 0 0 0 0 0 0 0 0 0 0 0 0 0
0 0 0 0 0 0 0 0 0 0 0 0 0 0 0 0 0 0 0 0 0 1 2 2 1 0 0 0 0 0 0 0 0 1 0 0 0 0 0 0 0 0 0 0 0 0 0 0 0
0 0 0 0 0 0 0 0 0 0 0 0 0 0 0 0 0 0 0 0 0 1 2 3 3 1 0 0 0 0 0 0 0 1 0 0 0 0 0 0 0 0 0 0 0 0 0 0 0
0 0 0 0 0 0 0 0 0 0 0 0 0 0 0 0 0 0 0 0 0 0 1 3 4 2 0 0 0 0 0 0 0 0 0 0 0 0 0 0 0 0 0 0 0 0 0 0 0
0 0 0 0 0 0 0 0 0 0 0 0 0 0 0 0 0 0 0 0 0 0 1 2 3 1 0 0 0 0 0 0 0 0 0 0 0 0 0 0 0 0 0 0 0 0 0 0 0
0 0 0 0 0 0 0 0 0 0 0 0 0 0 0 0 0 0 0 0 0 0 0 1 1 0 0 0 0 0 1 1 1 1 1 1 0 0 0 0 0 0 0 0 0 0 0 0 0
0 0 0 0 0 0 0 0 0 0 0 0 0 0 0 0 0 0 0 0 0 0 0 0 0 0 0 0 0 0 1 2 3 2 2 2 1 0 0 0 0 0 0 0 0 0 0 0 0
0 0 0 0 0 0 0 0 0 0 0 0 0 0 0 0 0 0 0 0 0 0 0 0 0 0 0 0 0 0 1 2 3 3 3 2 1 0 0 0 0 0 0 0 0 0 0 0 0
0 0 0 0 0 0 0 0 0 0 0 0 0 0 0 0 0 0 0 0 0 0 0 0 0 0 0 0 0 0 0 1 2 3 3 1 1 1 0 0 0 0 0 0 0 0 0 0 0
0 0 0 0 0 0 0 0 0 0 0 0 0 0 0 0 0 0 0 0 0 0 0 0 0 0 0 0 0 0 0 0 1 2 2 2 2 2 1 0 0 0 0 0 0 0 0 0 0
0 0 0 0 0 0 0 0 0 0 0 0 0 0 0 0 0 0 0 0 0 0 0 0 0 0 0 0 0 0 0 0 0 1 2 3 3 2 1 0 0 0 0 0 0 0 0 0 0
Wind_Speed
7 1 3 4 5 4 4 2 2 3 4 2 3 4 3 3 2 3 5 11 13 15 16 16 13 15 15 14 14 13 13 13 12 12 12 12 11 11 11 11 11 11 11 11 10 10 10 10 10
5 2 4 4 5 6 4 4 5 3 2 4 4 3 3 2 2 4 6 11 14 15 15 15 14 14 15 14 13 13 13 13 12 12 12 11 11 11 11 11 10 10 10 10 10 9 9 8 8
4 4 4 4 6 6 3 4 3 3 4 4 4 2 1 1 3 5 7 13 14 14 14 14 13 14 15 14 13 12 13 12 12 12 12 11 10 10 10 10 9 9 9 9 9 8 8 7 7
3 3 4 7 9 6 4 2 3 5 5 4 4 4 2 2 2 5 11 14 15 14 13 14 13 14 15 14 13 12 12 12 12 11 11 10 10 10 9 9 8 8 8 8 7 7 6 6 5
2 4 6 8 10 6 5 3 5 7 6 5 5 3 4 3 4 8 13 14 14 14 13 15 13 13 13 14 13 12 12 12 11 11 11 10 10 9 9 8 7 7 7 7 6 6 5 5 4
3 4 8 11 11 7 6 5 6 7 5 5 6 4 4 5 6 10 13 13 13 13 12 13 12 11 11 12 11 11 10 10 10 10 11 10 10 9 8 7 7 7 6 6 5 5 4 3 3
4 6 10 12 10 9 6 6 8 7 7 6 5 5 5 6 7 10 12 11 11 12 12 12 13 12 11 10 10 9 9 9 9 9 9 8 8 8 7 6 6 6 6 5 5 4 3 2 2
3 5 10 11 12 11 6 6 5 7 5 3 5 5 4 8 10 10 10 10 10 11 11 12 12 12 12 12 10 9 8 8 8 8 8 8 7 7 6 6 5 5 5 4 4 3 3 2 2
4 8 12 12 11 8 6 7 5 2 4 4 3 1 3 11 13 11 10 10 10 10 11 11 12 11 11 11 10 10 9 8 8 8 8 8 7 8 7 6 4 4 4 3 3 3 3 3 3
7 11 14 8 7 6 6 7 6 6 7 6 5 3 6 12 13 14 13 14 14 14 13 11 12 12 11 8 9 8 8 9 9 8 9 8 6 5 5 5 5 4 4 4 4 3 4 5 3
7 11 8 7 6 5 6 6 5 8 9 8 8 8 10 12 13 14 15 15 14 14 13 12 12 11 11 8 7 6 6 6 8 9 9 7 6 5 5 4 5 6 6 5 5 5 4 4 3
7 7 6 5 4 5 7 6 7 10 8 2 4 6 11 14 15 16 16 15 13 13 14 13 12 11 11 9 8 7 6 6 6 8 9 7 5 5 5 4 4 4 4 4 4 3 4 4 5
9 6 5 5 5 6 6 9 8 10 8 5 3 7 11 13 14 14 12 12 13 14 14 14 13 12 11 10 7 7 7 7 8 7 8 9 7 6 6 5 4 5 4 5 5 5 5 5 5
4 5 6 6 6 6 8 10 10 11 7 6 7 9 10 12 13 12 12 13 14 14 14 13 14 13 12 10 9 8 8 7 7 7 9 10 8 7 6 6 6 6 5 5 5 5 5 4 4
3 5 7 8 8 6 6 13 15 11 8 9 9 9 9 10 11 12 13 13 14 13 13 14 13 13 13 12 11 8 8 8 8 7 9 10 9 8 7 6 6 6 6 6 5 6 5 4 4
4 7 9 7 7 7 9 17 10 7 9 12 11 10 10 10 11 12 12 12 12 12 13 13 11 13 14 12 11 8 8 9 8 8 8 11 11 10 8 7 7 7 6 5 5 5 5 5 4
8 11 12 7 5 5 11 14 6 4 8 12 11 11 10 10 11 11 11 11 11 12 12 13 14 14 14 13 10 9 8 9 8 8 8 9 11 11 9 7 7 7 6 6 5 5 5 5 5
9 11 9 10 4 6 12 14 9 6 8 11 11 11 11 11 12 10 10 10 10 11 11 12 13 14 12 10 9 8 9 8 8 8 9 10 10 11 10 8 8 7 6 6 6 7 6 5 4
6 8 10 7 4 7 13 16 15 11 11 13 13 13 13 13 11 8 8 8 9 10 11 12 13 13 11 9 9 9 9 8 8 8 9 10 10 10 10 8 8 7 7 8 8 6 6 5 4
8 9 9 5 3 6 11 17 15 14 15 14 15 14 14 13 10 8 8 7 8 10 10 11 12 12 13 11 9 7 7 7 8 7 9 11 11 11 9 10 8 8 7 8 8 7 5 4 4
11 12 9 5 3 5 9 14 12 10 11 12 12 12 11 10 10 8 7 7 7 8 9 8 11 11 12 12 9 6 6 5 7 9 8 10 11 11 10 10 9 8 8 7 8 8 8 6 6
11 9 8 6 6 5 5 10 9 8 9 10 10 9 9 9 8 7 6 6 6 7 6 7 8 9 10 11 11 12 10 10 10 8 7 8 10 10 10 10 10 9 7 8 8 8 7 8 6
6 4 7 7 8 9 8 10 8 5 9 9 8 8 8 7 7 7 6 6 6 5 5 5 6 7 8 10 12 12 11 9 7 7 8 8 8 9 9 9 9 8 7 8 8 7 8 7 7
4 3 3 4 5 10 12 12 10 5 6 4 4 4 4 4 4 5 4 4 4 4 3 3 4 5 6 8 9 11 12 11 9 9 8 7 6 6 8 8 8 8 7 8 8 7 8 7 8
7 6 4 5 7 9 5 10 9 3 4 4 3 3 3 3 3 3 3 3 4 4 3 2 2 3 3 5 7 8 10 10 10 9 8 7 6 5 7 7 7 7 7 7 7 6 7 7 8
10 10 7 6 7 5 6 10 5 2 3 3 3 3 4 4 4 4 4 4 4 4 3 3 2 2 1 2 3 4 6 5 5 7 6 6 5 5 5 6 6 6 6 6 6 6 6 6 7
7 8 5 2 2 5 7 6 4 2 2 3 3 4 5 5 5 6 6 5 5 5 5 4 3 3 2 2 1 1 3 4 4 5 5 4 4 3 4 5 5 5 5 5 5 4 5 5 5
4 4 4 5 5 7 7 7 4 1 1 2 4 5 5 6 6 6 6 6 5 5 5 5 5 4 3 3 2 1 1 1 3 3 3 3 3 3 4 4 4 4 4 4 4 4 4 4 3
5 5 4 4 4 5 5 3 1 2 1 2 3 5 6 5 5 5 5 5 5 5 5 5 5 5 5 4 3 2 1 1 1 1 2 3 2 3 3 4 4 4 4 4 4 4 3 4 3
4 6 5 4 4 4 4 3 2 1 2 3 4 5 5 5 5 5 5 5 5 5 5 5 4 5 5 4 3 3 2 1 1 1 1 2 2 2 3 3 3 3 3 3 4 4 3 3 3
Wind_Direction
327 277 222 235 232 228 230 191 199 180 176 147 157 190 220 214 275 40 89 151 147 150 153 155 156 155 153 149 149 147 146 144 143 140 137 133 129 126 123 117 114 112 109 105 102 98 95 90 86
319 264 239 243 245 230 213 192 202 192 130 134 157 187 205 189 43 93 139 154 153 152 155 159 152 155 154 152 152 153 152 151 147 145 142 138 135 129 126 122 119 117 113 109 106 103 99 94 89
299 255 255 235 235 239 216 180 186 134 148 172 164 195 248 105 129 143 146 155 154 153 157 151 153 155 156 157 158 158 156 154 151 147 144 140 137 133 130 129 126 122 117 114 110 106 102 97 93
276 226 232 236 228 234 247 199 172 159 167 189 186 167 147 55 118 136 145 157 156 156 158 152 157 157 160 160 160 159 158 158 156 153 150 148 143 139 137 135 132 129 125 121 117 113 108 103 97
250 241 227 231 232 229 237 232 194 190 182 180 197 184 143 106 113 138 152 159 159 157 160 158 160 160 162 164 165 164 163 163 162 160 156 153 150 147 146 143 142 138 134 130 124 121 118 113 101
226 227 231 231 228 226 229 211 198 210 199 182 196 184 136 125 146 150 156 163 162 160 162 162 159 162 164 167 166 167 168 167 166 165 162 159 157 157 155 153 153 152 145 141 138 131 127 122 111
234 227 239 240 236 229 221 196 208 210 209 194 192 183 146 155 157 154 159 163 164 164 166 168 171 170 168 168 169 170 171 171 170 168 164 162 161 158 158 159 163 165 162 156 151 150 147 146 138
248 233 234 234 234 233 210 194 219 219 212 155 194 206 161 155 151 153 157 163 167 171 175 175 176 178 178 177 172 173 173 172 170 164 158 155 155 158 158 173 169 176 177 174 171 172 178 187 191
224 229 231 226 228 229 195 202 195 222 181 171 201 296 69 133 148 154 160 170 176 181 183 182 181 183 183 182 175 179 177 174 171 169 162 170 185 184 180 186 170 183 187 192 197 197 200 215 204
214 231 235 235 237 235 206 215 194 189 199 200 195 166 133 148 164 172 178 182 185 188 189 188 187 186 186 183 181 189 190 186 193 190 185 194 196 195 200 168 186 196 200 209 216 219 218 235 239
219 237 240 234 242 249 230 223 214 217 220 219 212 183 164 169 180 188 193 192 192 190 190 195 193 191 190 188 190 190 192 193 199 198 196 198 198 196 204 196 192 206 211 221 211 219 237 248 263
229 236 240 242 239 238 237 231 226 230 238 266 241 177 175 185 192 198 200 197 194 195 195 197 197 196 197 197 196 196 196 197 200 199 200 199 200 205 205 211 213 214 216 224 232 236 244 253 259
231 234 237 255 254 251 247 240 246 243 249 265 224 186 195 200 204 206 207 204 201 201 200 199 199 200 200 201 203 203 204 204 204 202 202 206 207 209 209 213 215 220 221 224 231 240 248 255 261
238 246 250 248 245 243 242 250 246 244 238 236 223 216 213 212 213 210 208 208 207 208 205 201 202 203 203 204 205 207 208 208 210 208 208 209 214 215 214 215 217 221 222 228 234 242 247 254 260
247 249 252 238 231 230 237 248 237 243 234 236 234 230 227 224 221 220 216 214 213 212 209 206 205 206 207 209 209 210 210 210 211 212 214 212 216 218 217 221 221 222 222 226 234 240 243 251 254
216 226 236 219 219 216 220 248 236 234 234 240 241 240 237 234 231 230 227 223 219 215 213 210 206 208 210 211 211 211 212 212 214 214 215 216 218 219 219 224 227 224 221 222 229 233 237 243 251
210 225 229 224 212 214 221 251 250 245 241 246 246 246 246 243 239 236 232 229 223 219 216 213 209 211 211 211 213 214 213 214 215 215 216 216 217 218 219 223 227 223 222 224 223 227 232 245 248
210 221 227 225 209 230 236 247 250 260 259 255 254 253 251 249 247 243 237 233 228 223 220 218 214 213 211 209 212 215 217 218 217 216 217 216 215 214 218 223 224 220 222 224 221 227 229 242 251
236 234 236 243 254 246 248 256 257 258 261 259 256 255 254 254 257 253 244 236 230 224 221 220 218 213 207 204 206 210 215 215 215 218 219 218 216 213 215 218 219 215 221 225 224 226 229 232 231
233 240 244 256 263 257 265 266 264 256 253 255 256 254 256 259 260 256 249 241 234 231 226 225 223 217 210 209 207 210 212 216 217 216 218 220 217 216 215 218 215 212 218 223 221 218 224 225 215
231 236 238 249 283 270 279 267 249 246 244 249 252 255 258 261 262 264 258 250 243 239 235 231 228 223 217 212 207 203 207 212 213 216 217 217 216 215 214 217 217 214 215 219 218 215 222 227 221
234 231 234 238 247 251 253 272 251 243 244 247 250 250 254 254 258 262 261 259 253 248 242 236 232 227 220 211 209 208 209 214 217 215 214 213 213 214 214 216 217 217 216 220 218 216 220 226 229
231 210 221 235 246 258 240 258 265 240 247 249 247 251 257 261 262 263 265 268 268 264 250 243 236 230 223 215 213 214 219 222 220 213 213 213 210 212 213 213 214 216 217 221 220 219 220 222 229
192 175 210 227 231 245 233 235 265 234 248 258 251 258 276 288 284 284 293 298 298 298 281 258 243 235 226 218 216 216 219 219 216 214 212 212 209 208 212 211 213 215 217 220 221 220 221 222 226
194 181 191 201 213 236 206 225 252 258 262 271 285 304 313 326 329 334 339 342 343 339 329 311 277 257 234 218 218 221 222 221 221 220 218 215 212 211 211 209 213 215 217 218 218 216 219 222 224
202 204 209 216 222 226 204 231 243 310 302 299 310 329 351 1 5 10 5 3 1 355 349 348 335 316 293 233 222 220 224 225 225 224 222 220 217 216 210 206 210 214 215 215 213 212 216 219 220
193 212 234 267 271 248 226 242 266 325 352 352 355 11 7 6 11 13 11 10 7 6 4 359 358 352 343 325 288 229 225 225 227 227 223 223 221 214 209 204 205 208 207 208 205 208 214 217 220
223 185 184 208 220 235 240 238 234 240 322 3 13 4 358 3 11 12 9 8 8 3 4 12 11 7 0 357 346 333 285 249 235 229 225 221 220 212 204 204 204 205 204 203 201 201 207 210 219
186 187 199 206 240 241 245 242 136 227 309 3 7 358 355 3 5 3 1 2 2 5 8 12 10 10 10 5 358 359 348 311 265 240 237 228 220 211 206 203 201 201 201 199 196 198 194 200 210
231 209 195 209 225 244 260 260 81 5 355 355 353 350 348 347 347 350 354 358 1 1 2 2 4 6 4 358 354 355 357 350 329 280 262 238 219 214 210 200 196 197 196 195 192 193 194 195 199